Temperature
-0 -0 -0 -0 -0 -0 -0 0 0 0 0 0 0 0 0 0 0 0 0 1 0 1 0 0 0 0 0 0 0 0 -0 -0 -0 0 1 1 1 1 2 2 2 2 2
-1 -1 -1 -1 -1 -1 -1 -0 -0 -0 -0 -0 -0 -0 -0 -0 -0 -0 -0 -0 -0 -0 -0 -0 -0 -0 -0 -0 -1 -1 -1 -1 -1 -1 -0 0 0 1 1 1 1 1 2
-2 -2 -2 -2 -1 -1 -1 -1 -1 -1 -1 -1 -1 -1 -1 -1 -1 -1 -1 -1 -1 -1 -1 -1 -1 -1 -1 -1 -1 -1 -1 -1 -1 -1 -1 -1 -0 -0 -0 0 0 1 1
-2 -2 -2 -2 -2 -2 -2 -2 -2 -2 -2 -1 -1 -1 -2 -2 -2 -2 -2 -2 -1 -1 -1 -1 -1 -2 -2 -2 -2 -2 -2 -2 -2 -2 -2 -1 -1 -1 -1 -1 -0 -0 0
-3 -3 -3 -3 -3 -3 -3 -3 -2 -2 -2 -2 -2 -2 -2 -2 -2 -2 -2 -2 -2 -2 -2 -2 -2 -2 -2 -2 -3 -3 -3 -3 -2 -2 -2 -2 -2 -2 -2 -2 -1 -1 -1
-3 -3 -3 -3 -3 -3 -3 -3 -3 -3 -3 -3 -3 -3 -3 -3 -3 -3 -3 -3 -3 -3 -3 -3 -3 -3 -3 -3 -3 -3 -3 -3 -3 -3 -3 -3 -3 -3 -2 -3 -2 -2 -2
-4 -4 -4 -4 -4 -4 -4 -4 -4 -4 -4 -4 -4 -4 -3 -3 -4 -4 -4 -4 -4 -4 -4 -4 -4 -4 -4 -4 -4 -4 -4 -4 -4 -4 -4 -3 -3 -3 -3 -3 -3 -3 -2
-5 -5 -5 -5 -5 -5 -5 -5 -5 -5 -5 -5 -4 -4 -4 -4 -4 -5 -5 -5 -5 -5 -5 -5 -5 -5 -5 -5 -5 -4 -4 -4 -4 -4 -4 -4 -4 -4 -4 -3 -3 -3 -3
-5 -5 -5 -5 -5 -5 -5 -5 -5 -5 -5 -5 -5 -5 -5 -5 -5 -5 -5 -5 -5 -5 -5 -5 -5 -5 -5 -5 -5 -5 -5 -5 -5 -5 -5 -5 -4 -4 -4 -4 -4 -4 -4
-6 -6 -6 -6 -6 -6 -6 -6 -6 -6 -6 -6 -6 -6 -6 -6 -6 -6 -6 -6 -6 -6 -6 -6 -6 -6 -6 -6 -6 -6 -5 -5 -5 -5 -5 -5 -5 -5 -5 -5 -5 -5 -5
-6 -6 -6 -6 -7 -7 -7 -7 -7 -7 -7 -7 -7 -6 -6 -6 -6 -6 -6 -7 -7 -6 -6 -6 -6 -6 -6 -6 -6 -6 -6 -6 -6 -6 -6 -6 -5 -5 -5 -5 -5 -5 -5
-7 -7 -7 -7 -7 -7 -7 -7 -7 -7 -7 -7 -7 -7 -7 -7 -7 -7 -7 -7 -7 -7 -7 -7 -7 -7 -7 -7 -7 -7 -7 -6 -6 -6 -6 -6 -6 -6 -6 -6 -6 -6 -5
-7 -7 -7 -7 -7 -8 -8 -8 -8 -8 -8 -8 -8 -8 -8 -8 -8 -8 -8 -8 -8 -8 -8 -8 -8 -8 -7 -7 -7 -7 -7 -7 -7 -7 -7 -7 -7 -6 -6 -6 -6 -6 -6
-8 -8 -8 -8 -8 -8 -8 -8 -9 -9 -9 -9 -9 -9 -9 -8 -8 -8 -8 -8 -8 -8 -8 -8 -8 -8 -8 -8 -8 -8 -8 -8 -8 -8 -8 -7 -7 -7 -7 -7 -7 -7 -7
-8 -8 -8 -9 -9 -9 -9 -9 -9 -9 -9 -9 -9 -9 -9 -9 -9 -9 -9 -9 -9 -9 -9 -9 -9 -9 -9 -9 -9 -8 -8 -8 -8 -8 -8 -8 -8 -8 -8 -8 -8 -8 -8
-9 -9 -9 -9 -9 -9 -9 -9 -9 -9 -10 -10 -10 -10 -10 -10 -10 -10 -10 -9 -9 -9 -9 -9 -9 -9 -9 -9 -9 -9 -9 -9 -8 -8 -8 -8 -8 -8 -8 -8 -8 -8 -8
-9 -9 -9 -10 -10 -10 -10 -10 -10 -10 -10 -10 -10 -10 -10 -10 -10 -10 -10 -10 -10 -10 -10 -10 -10 -10 -10 -10 -10 -10 -10 -9 -9 -9 -9 -9 -9 -9 -9 -9 -9 -9 -9
-10 -10 -10 -10 -10 -10 -10 -11 -11 -11 -10 -10 -10 -10 -10 -10 -10 -10 -10 -10 -10 -10 -10 -10 -10 -10 -10 -10 -10 -10 -10 -10 -10 -10 -9 -9 -9 -9 -9 -10 -10 -10 -10
-10 -10 -11 -11 -11 -11 -11 -11 -11 -11 -11 -11 -11 -11 -11 -11 -11 -11 -11 -11 -11 -11 -11 -11 -11 -11 -11 -11 -11 -11 -11 -10 -10 -10 -10 -10 -10 -10 -10 -10 -10 -10 -10
-11 -11 -11 -11 -11 -11 -11 -12 -12 -12 -12 -12 -12 -12 -12 -12 -11 -11 -11 -11 -12 -12 -11 -12 -12 -12 -11 -11 -11 -11 -11 -11 -11 -11 -11 -11 -11 -11 -11 -11 -11 -11 -11
-11 -11 -12 -12 -12 -12 -12 -12 -12 -12 -12 -12 -12 -12 -12 -12 -12 -12 -12 -12 -12 -12 -12 -12 -12 -12 -12 -12 -12 -12 -12 -12 -11 -11 -11 -11 -11 -11 -11 -11 -11 -11 -11
-12 -12 -12 -12 -12 -12 -12 -12 -13 -13 -13 -13 -13 -13 -13 -13 -13 -13 -13 -13 -13 -13 -12 -12 -12 -12 -12 -12 -12 -12 -12 -12 -12 -12 -12 -12 -11 -11 -11 -11 -11 -11 -11
-12 -12 -12 -12 -13 -13 -13 -13 -13 -13 -13 -13 -13 -13 -13 -13 -13 -13 -13 -13 -13 -13 -13 -13 -13 -13 -13 -13 -13 -13 -12 -12 -12 -12 -12 -12 -12 -12 -12 -12 -11 -12 -11
-12 -13 -13 -13 -13 -13 -13 -13 -13 -13 -13 -14 -14 -14 -14 -14 -14 -14 -14 -14 -13 -13 -13 -13 -13 -13 -13 -13 -13 -13 -13 -13 -13 -13 -13 -12 -12 -12 -12 -12 -12 -12 -12
-13 -13 -13 -13 -13 -13 -13 -13 -13 -14 -14 -14 -14 -14 -14 -14 -14 -14 -14 -14 -14 -14 -14 -14 -14 -13 -13 -13 -13 -13 -13 -13 -13 -13 -13 -13 -13 -12 -12 -12 -12 -12 -12
-13 -13 -13 -13 -14 -14 -14 -14 -14 -14 -14 -14 -14 -14 -14 -15 -15 -14 -14 -14 -14 -14 -14 -14 -14 -14 -14 -13 -13 -13 -13 -13 -13 -13 -13 -13 -13 -13 -13 -12 -12 -12 -12
Wind_Speed
2 2 2 3 2 2 2 2 2 2 2 3 4 4 4 5 5 5 6 6 6 6 6 6 6 5 4 4 4 4 5 5 8 8 5 4 5 5 7 8 9 10 11
1 1 2 2 2 2 2 2 2 2 3 3 3 4 5 5 5 5 6 6 7 7 7 7 7 6 6 5 4 5 6 6 7 9 6 5 6 5 6 6 7 9 9
0 1 1 1 2 2 3 3 2 3 3 3 3 4 5 5 5 5 6 6 6 7 7 7 7 6 6 5 5 5 5 6 5 7 8 5 5 5 5 6 6 6 8
1 1 1 1 2 2 2 2 2 2 3 3 4 5 5 5 5 5 5 5 5 6 6 6 6 7 7 6 6 6 5 5 5 6 7 6 5 5 5 5 5 5 6
1 1 2 2 1 1 2 2 2 2 3 3 3 4 4 4 4 4 5 5 5 5 5 5 6 8 8 7 7 6 6 6 6 6 7 6 6 4 5 5 6 5 6
1 2 2 2 2 2 2 2 2 2 3 2 3 3 4 4 6 7 5 5 5 5 6 6 6 7 8 10 11 11 10 8 8 7 7 8 8 6 5 6 6 6 6
2 2 2 2 2 2 2 2 2 3 3 3 3 4 4 5 7 7 7 5 4 5 5 5 6 6 6 5 7 10 10 12 12 10 10 10 9 8 7 8 8 8 8
2 2 2 2 2 2 3 3 3 3 3 3 4 4 4 5 7 7 7 5 5 5 5 5 6 5 6 6 6 7 7 8 9 8 8 9 9 8 8 8 8 8 7
2 3 3 2 3 3 3 3 3 3 3 3 4 4 4 5 7 7 7 4 4 5 5 5 6 6 8 9 7 7 7 7 8 10 11 11 13 14 12 7 7 8 9
3 3 3 3 3 3 3 3 3 3 3 4 5 4 4 5 7 7 7 3 4 4 5 5 7 8 10 10 7 6 7 7 6 7 8 9 9 10 12 8 7 8 8
3 3 3 3 3 3 3 3 3 3 4 4 4 4 4 5 6 7 7 4 4 4 4 4 5 8 10 10 9 7 8 8 6 5 6 6 5 5 6 7 7 7 8
3 3 3 3 3 3 3 3 3 3 4 4 4 5 4 4 5 6 8 8 7 4 5 4 5 9 10 11 9 9 10 8 4 5 5 6 6 5 5 6 7 8 9
3 3 3 4 4 3 3 3 3 3 3 4 3 4 4 4 4 7 8 9 9 5 5 7 8 9 9 8 9 10 8 5 4 5 6 6 5 5 4 4 5 6 8
3 3 3 4 4 4 3 3 3 3 3 4 4 4 4 4 4 4 4 5 7 6 5 7 9 9 7 7 7 6 5 4 4 5 5 5 4 4 5 4 5 5 5
3 3 3 3 4 4 4 3 4 3 4 5 4 4 4 5 6 8 6 4 4 4 4 3 3 3 4 4 4 4 4 4 5 4 5 5 5 5 5 4 4 4 6
3 3 3 3 3 3 4 5 6 6 8 9 8 8 6 8 10 10 10 10 9 7 4 3 3 4 4 4 5 4 4 4 4 5 5 5 5 5 4 4 4 4 5
3 4 3 3 4 4 4 4 5 7 8 9 9 10 10 10 11 11 10 10 9 7 4 4 4 4 4 4 4 5 5 5 4 5 5 5 5 5 5 5 5 5 5
3 4 4 3 4 4 4 4 4 5 6 6 7 10 11 11 11 11 10 8 5 4 3 4 4 4 4 4 5 5 5 4 4 5 5 5 5 5 5 5 5 5 5
3 3 3 3 4 4 4 4 4 5 5 5 5 7 9 10 10 10 8 4 4 4 4 4 4 4 4 5 5 5 5 5 5 5 5 5 5 5 5 5 5 7 7
3 5 5 4 3 4 4 4 4 4 5 5 5 6 6 6 5 5 5 4 4 4 4 4 4 4 4 4 4 4 4 5 5 5 5 5 5 5 6 6 6 6 6
3 4 5 4 3 4 4 4 4 4 4 5 5 7 8 5 4 5 4 4 4 4 4 4 4 4 4 4 4 4 5 5 5 5 5 5 5 5 5 6 6 6 6
3 3 3 3 3 3 4 3 4 4 5 6 5 7 10 6 4 4 4 5 5 4 4 4 4 4 4 4 4 5 5 6 5 5 6 5 5 5 6 6 6 6 6
3 3 3 4 3 5 5 4 4 4 5 5 5 5 5 5 5 5 5 5 5 5 5 4 5 5 5 5 5 5 6 6 6 6 6 5 5 6 6 6 7 6 6
3 3 4 4 3 3 4 4 4 4 5 5 5 5 5 5 5 6 5 5 5 5 5 5 6 7 8 7 6 7 7 8 8 7 7 6 6 6 6 6 6 7 7
3 3 3 3 4 4 4 4 4 4 5 5 5 5 5 5 5 6 5 5 6 6 6 6 6 7 8 9 9 9 11 12 11 9 7 6 7 6 6 6 6 5 5
3 4 4 3 4 4 4 4 4 5 5 5 5 5 5 5 6 6 6 5 5 5 6 6 7 9 10 9 10 12 13 12 12 11 8 6 5 5 5 4 5 4 4
Wind_Direction
220 226 226 236 244 239 245 248 250 258 255 251 255 254 252 250 244 239 242 241 241 247 249 243 247 246 249 255 250 244 242 235 254 269 270 273 271 273 276 272 269 264 262
232 219 226 235 243 249 255 263 262 262 262 261 262 260 258 256 249 241 243 244 240 242 245 244 246 246 246 253 248 247 246 241 246 263 270 275 270 266 270 266 274 271 266
302 232 240 242 252 260 262 266 261 257 262 267 259 259 259 256 253 250 245 245 243 244 245 245 244 242 244 253 250 249 251 254 249 256 268 269 272 268 273 273 275 273 273
331 289 270 261 262 274 274 264 268 270 269 272 267 263 259 255 254 255 253 252 249 250 249 249 249 241 241 247 249 247 251 255 255 256 263 263 266 268 267 264 274 265 270
338 308 290 300 310 301 294 288 288 283 281 280 280 282 274 261 253 251 247 250 251 253 254 253 255 252 251 254 252 244 243 248 251 255 259 265 263 265 262 265 268 273 271
340 309 314 327 328 318 305 302 301 304 303 300 287 281 275 272 276 272 265 252 253 254 259 262 263 260 263 267 267 262 253 247 248 252 258 259 261 263 266 270 271 278 276
337 329 328 326 325 317 310 313 307 310 313 305 292 281 274 274 276 277 276 269 256 256 259 261 266 267 268 260 270 273 269 265 259 254 255 258 260 255 256 260 260 265 272
340 331 326 322 313 311 306 301 301 307 305 300 294 286 281 275 275 276 279 274 263 257 255 254 256 264 266 264 262 265 263 265 264 260 253 259 264 263 252 255 262 269 272
334 332 328 320 307 306 303 305 308 310 307 300 294 287 282 281 276 276 280 271 265 264 261 260 259 258 269 271 263 262 268 271 277 273 269 269 271 273 270 264 259 262 272
321 322 321 318 306 300 300 305 305 303 296 296 294 291 284 280 280 281 281 269 264 266 267 268 269 268 270 273 262 257 263 268 274 280 277 275 273 275 275 260 252 255 268
318 318 316 312 306 298 297 299 304 303 304 297 292 291 285 285 291 288 284 274 264 265 268 269 268 273 275 276 273 265 266 273 269 270 274 275 271 265 261 256 252 251 256
316 312 312 311 308 308 305 302 300 301 301 297 295 296 293 290 292 291 289 287 282 267 266 267 269 279 281 282 279 275 279 284 275 268 269 270 269 265 264 259 256 256 255
314 312 313 314 313 310 305 301 301 296 291 292 291 293 296 297 295 295 293 290 289 276 270 275 278 280 283 284 287 288 286 275 266 266 266 267 265 263 262 262 262 264 267
309 313 316 317 315 314 305 295 295 293 290 289 289 290 295 298 296 296 295 294 293 286 280 279 282 285 284 283 284 286 279 266 261 261 268 269 269 266 267 261 263 263 271
307 309 313 311 308 307 303 293 287 275 277 284 281 281 287 290 290 295 295 291 285 274 282 271 267 274 274 277 276 274 277 275 271 266 267 270 270 268 269 266 259 265 264
304 307 307 308 306 305 306 309 303 295 295 292 290 289 288 288 296 297 297 300 295 287 283 269 268 269 270 274 276 278 277 278 276 272 268 265 266 268 271 273 265 261 264
293 297 299 302 303 303 302 304 309 312 307 304 301 299 296 299 302 302 301 301 301 302 286 278 274 271 271 273 274 276 280 279 278 274 274 271 268 266 265 267 266 261 263
291 289 296 292 295 297 297 297 298 303 310 311 311 309 309 308 309 309 308 306 303 302 280 276 278 277 276 275 273 274 279 280 276 276 275 271 267 266 264 261 261 261 262
293 289 290 291 290 291 295 297 297 299 301 307 313 318 318 318 319 319 317 305 293 290 286 281 279 278 277 278 277 276 275 277 278 275 273 270 267 265 263 261 260 263 264
292 294 301 298 296 296 296 298 300 302 305 308 310 313 319 322 324 324 322 313 301 294 292 289 290 289 287 287 286 286 285 281 280 276 273 271 267 262 259 259 258 258 260
295 295 301 305 300 298 299 298 300 302 303 304 304 308 316 316 310 309 310 309 302 297 296 293 291 290 289 289 287 285 282 280 276 276 273 271 268 265 263 261 261 260 262
301 301 303 302 302 301 303 302 303 302 301 302 305 310 315 316 311 307 306 305 302 297 295 292 289 286 285 283 283 283 281 281 279 276 276 272 269 265 263 259 257 258 259
308 308 310 306 301 300 306 304 301 299 299 301 305 309 312 310 309 306 303 303 302 302 299 293 290 289 288 286 280 275 277 279 277 274 276 275 271 267 263 260 257 255 255
302 300 299 301 303 300 299 299 298 299 302 304 305 305 305 305 303 302 301 302 301 297 294 288 283 282 284 286 284 279 276 278 278 272 267 269 268 266 262 260 257 253 254
308 303 302 300 302 301 300 301 303 306 307 306 306 306 305 305 304 303 303 301 299 295 291 289 287 286 287 287 288 287 286 287 285 281 269 262 262 261 259 258 257 256 252
320 317 313 309 306 305 303 304 306 306 306 305 306 305 304 305 304 304 304 303 304 301 297 293 292 292 293 291 291 292 294 293 290 287 279 265 259 261 258 254 252 248 244
Height
1462 1463 1464 1464 1465 1466 1466 1467 1468 1469 1469 1469 1469 1470 1470 1471 1472 1472 1473 1473 1474 1475 1475 1476 1477 1478 1479 1480 1480 1481 1482 1482 1480 1478 1480 1481 1481 1481 1481 1482 1481 1481 1481
1459 1460 1460 1460 1461 1461 1462 1462 1463 1463 1464 1464 1464 1465 1465 1466 1466 1467 1467 1467 1468 1468 1469 1470 1470 1472 1472 1473 1474 1474 1475 1475 1474 1472 1473 1474 1474 1474 1474 1475 1474 1474 1474
1457 1457 1457 1457 1457 1457 1457 1458 1458 1458 1458 1459 1459 1459 1459 1460 1460 1461 1461 1462 1462 1462 1463 1463 1464 1465 1465 1466 1467 1467 1468 1468 1468 1467 1466 1467 1467 1468 1467 1467 1467 1467 1467
1454 1453 1453 1453 1453 1453 1453 1453 1453 1453 1453 1453 1453 1453 1453 1454 1454 1454 1455 1455 1456 1456 1457 1457 1457 1458 1459 1460 1460 1461 1461 1461 1461 1461 1460 1459 1460 1461 1461 1460 1459 1460 1460
1451 1450 1450 1450 1450 1450 1449 1449 1449 1449 1448 1448 1448 1448 1448 1448 1448 1449 1449 1449 1449 1450 1450 1450 1451 1452 1452 1454 1454 1454 1454 1454 1454 1454 1453 1453 1453 1454 1454 1454 1453 1452 1452
1448 1448 1447 1446 1446 1446 1446 1445 1445 1443 1443 1443 1442 1442 1442 1442 1443 1443 1444 1443 1443 1443 1443 1444 1445 1445 1446 1447 1448 1448 1448 1448 1447 1447 1446 1446 1445 1446 1447 1447 1447 1446 1443
1446 1445 1444 1444 1443 1442 1442 1441 1440 1439 1439 1438 1438 1437 1437 1437 1437 1438 1438 1437 1438 1437 1437 1438 1438 1439 1439 1440 1440 1441 1441 1441 1441 1441 1439 1439 1439 1439 1440 1440 1440 1439 1437
1443 1442 1441 1441 1440 1439 1438 1437 1436 1435 1434 1434 1433 1433 1432 1432 1432 1433 1433 1433 1432 1432 1432 1432 1432 1432 1433 1434 1434 1433 1433 1433 1433 1433 1433 1432 1433 1433 1434 1434 1433 1432 1430
1440 1439 1438 1438 1437 1436 1435 1433 1432 1431 1430 1430 1429 1428 1427 1427 1428 1428 1428 1427 1426 1426 1426 1427 1427 1426 1427 1428 1428 1426 1425 1426 1426 1426 1426 1426 1426 1427 1427 1427 1426 1425 1422
1438 1437 1436 1435 1434 1433 1432 1430 1429 1428 1427 1426 1425 1424 1424 1423 1423 1423 1423 1422 1421 1421 1421 1421 1421 1421 1421 1421 1421 1419 1418 1418 1419 1419 1419 1419 1419 1419 1419 1420 1419 1418 1415
1435 1434 1433 1432 1431 1430 1429 1428 1426 1425 1424 1422 1421 1421 1420 1419 1419 1418 1418 1418 1416 1415 1415 1415 1415 1415 1415 1416 1415 1414 1413 1413 1413 1413 1412 1412 1412 1411 1411 1412 1412 1412 1410
1433 1432 1431 1430 1429 1428 1426 1425 1424 1422 1420 1419 1417 1416 1416 1415 1415 1414 1413 1413 1412 1411 1410 1409 1409 1410 1410 1410 1410 1409 1408 1408 1407 1406 1406 1405 1405 1404 1405 1405 1405 1404 1403
1430 1429 1428 1427 1426 1425 1424 1422 1421 1419 1417 1416 1414 1413 1412 1411 1411 1410 1409 1408 1407 1406 1405 1404 1405 1405 1404 1404 1404 1403 1403 1402 1401 1400 1400 1400 1399 1399 1398 1398 1397 1397 1396
1427 1426 1425 1424 1423 1422 1420 1419 1418 1416 1414 1413 1411 1410 1408 1407 1406 1405 1404 1403 1402 1401 1400 1400 1400 1400 1399 1399 1398 1398 1397 1397 1396 1395 1394 1394 1393 1392 1392 1391 1390 1389 1388
1425 1423 1422 1421 1420 1419 1417 1416 1415 1414 1413 1411 1409 1407 1405 1403 1403 1402 1400 1399 1397 1397 1396 1395 1395 1394 1394 1393 1393 1392 1392 1391 1390 1390 1389 1388 1387 1386 1385 1385 1384 1383 1382
1422 1420 1419 1418 1417 1416 1414 1413 1412 1411 1409 1408 1406 1405 1402 1401 1400 1398 1396 1395 1394 1393 1392 1390 1390 1389 1389 1388 1387 1387 1386 1386 1385 1385 1383 1382 1381 1380 1380 1379 1379 1378 1377
1419 1418 1417 1415 1414 1413 1411 1409 1407 1406 1406 1404 1402 1401 1399 1397 1396 1394 1392 1391 1390 1389 1387 1386 1385 1385 1384 1384 1383 1382 1381 1380 1380 1379 1378 1377 1376 1375 1375 1374 1373 1372 1371
1416 1415 1414 1413 1411 1410 1408 1407 1405 1403 1401 1399 1398 1397 1395 1393 1391 1390 1388 1386 1384 1383 1382 1381 1381 1381 1380 1379 1378 1377 1376 1375 1375 1374 1373 1372 1371 1370 1369 1368 1368 1367 1367
1413 1412 1411 1409 1408 1407 1405 1404 1402 1400 1398 1396 1394 1392 1391 1389 1387 1386 1384 1382 1380 1379 1378 1378 1377 1376 1375 1374 1373 1372 1372 1371 1369 1368 1367 1366 1366 1365 1364 1363 1363 1362 1362
1410 1409 1408 1406 1405 1404 1402 1401 1399 1397 1395 1393 1391 1389 1387 1385 1383 1381 1380 1378 1377 1376 1375 1374 1373 1372 1371 1370 1369 1368 1367 1366 1364 1363 1362 1361 1360 1360 1359 1358 1357 1357 1357
1407 1406 1405 1403 1402 1400 1399 1397 1396 1394 1392 1390 1388 1386 1385 1383 1380 1378 1376 1375 1373 1372 1371 1370 1369 1368 1367 1365 1364 1363 1362 1360 1359 1358 1356 1355 1354 1354 1353 1353 1352 1352 1351
1404 1403 1402 1400 1399 1397 1396 1394 1392 1390 1388 1386 1384 1383 1381 1379 1377 1375 1373 1372 1370 1369 1367 1366 1365 1363 1362 1361 1360 1359 1357 1355 1354 1352 1351 1350 1349 1348 1348 1347 1347 1346 1346
1402 1400 1399 1397 1396 1395 1393 1391 1389 1387 1385 1383 1381 1379 1378 1376 1374 1372 1370 1368 1366 1365 1363 1362 1361 1359 1359 1357 1356 1355 1353 1351 1349 1348 1346 1345 1344 1343 1343 1342 1341 1341 1341
1399 1398 1396 1395 1393 1392 1390 1388 1386 1384 1382 1380 1378 1376 1374 1373 1371 1369 1367 1365 1363 1361 1359 1358 1356 1355 1354 1353 1351 1350 1348 1347 1345 1343 1342 1340 1339 1338 1337 1337 1336 1336 1336
1397 1395 1393 1392 1390 1388 1387 1385 1383 1381 1379 1377 1375 1373 1371 1369 1367 1365 1363 1361 1359 1357 1355 1354 1352 1351 1350 1348 1347 1345 1344 1342 1341 1339 1337 1336 1334 1333 1332 1331 1331 1331 1331
1394 1392 1391 1389 1387 1385 1383 1382 1380 1378 1376 1374 1372 1370 1368 1366 1364 1362 1360 1358 1356 1354 1352 1350 1349 1347 1346 1344 1343 1341 1339 1338 1336 1335 1333 1331 1329 1328 1327 1327 1327 1327 1327